TimeEDT,TemperatureF,Dew PointF,Humidity,Sea Level PressureIn,VisibilityMPH,Wind Direction,Wind SpeedMPH,Gust SpeedMPH,PrecipitationIn,Events,Conditions,WindDirDegrees,DateUTC
12:15 AM,50.5,50.5,100,30.01,0.8,Calm,Calm,-,N/A,,Mostly Cloudy,0,2013-05-09 04:15:00
12:35 AM,50.7,50.7,100,30.02,0.5,Calm,Calm,-,N/A,Fog,Fog,0,2013-05-09 04:35:00
2:55 AM,48.6,48.6,100,30.00,1.0,Calm,Calm,-,N/A,,Scattered Clouds,0,2013-05-09 06:55:00
3:55 AM,46.0,46.0,100,30.00,2.5,Calm,Calm,-,N/A,,Clear,0,2013-05-09 07:55:00
4:15 AM,45.1,45.1,100,30.00,1.2,Calm,Calm,-,N/A,,Mist,0,2013-05-09 08:15:00
5:55 AM,46.2,46.2,100,30.01,2.0,Calm,Calm,-,N/A,,Clear,0,2013-05-09 09:55:00
7:35 AM,52.0,52.0,100,30.06,7.0,SW,3.5,-,N/A,,Clear,220,2013-05-09 11:35:00
7:55 AM,52.9,52.9,100,30.06,10.0,WSW,3.5,-,N/A,,Clear,240,2013-05-09 11:55:00
8:15 AM,54.0,54.0,100,30.06,10.0,SW,4.6,-,N/A,,Clear,220,2013-05-09 12:15:00
9:15 AM,58.6,58.6,100,30.06,10.0,SSW,3.5,-,N/A,,Clear,210,2013-05-09 13:15:00
10:55 AM,70.5,57.6,63,30.07,10.0,West,8.1,-,N/A,,Clear,260,2013-05-09 14:55:00
11:15 AM,71.1,57.2,61,30.07,10.0,West,5.8,-,N/A,,Clear,260,2013-05-09 15:15:00
11:35 AM,72.1,57.6,60,30.06,10.0,West,4.6,-,N/A,,Clear,260,2013-05-09 15:35:00
11:55 AM,72.5,57.9,60,30.06,10.0,SW,5.8,-,N/A,,Clear,230,2013-05-09 15:55:00
12:15 PM,73.4,57.4,57,30.06,10.0,WNW,6.9,-,N/A,,Clear,290,2013-05-09 16:15:00
12:35 PM,74.8,56.8,53,30.06,10.0,NW,3.5,-,N/A,,Clear,310,2013-05-09 16:35:00
12:55 PM,76.1,56.5,50,30.06,10.0,NW,6.9,-,N/A,,Clear,320,2013-05-09 16:55:00
1:15 PM,76.3,56.7,51,30.05,10.0,NNW,3.5,-,N/A,,Clear,340,2013-05-09 17:15:00
1:35 PM,77.9,53.6,43,30.06,10.0,North,4.6,-,N/A,,Clear,350,2013-05-09 17:35:00
1:55 PM,77.5,54.0,44,30.05,10.0,WNW,4.6,-,N/A,,Clear,290,2013-05-09 17:55:00
2:15 PM,77.9,53.6,43,30.05,10.0,North,5.8,-,N/A,,Clear,350,2013-05-09 18:15:00
2:35 PM,78.1,55.4,45,30.04,10.0,Calm,Calm,-,N/A,,Scattered Clouds,0,2013-05-09 18:35:00
2:55 PM,78.6,54.5,43,30.04,10.0,Calm,Calm,-,N/A,,Scattered Clouds,0,2013-05-09 18:55:00
3:15 PM,78.8,55.0,44,30.03,10.0,WSW,5.8,-,N/A,,Scattered Clouds,250,2013-05-09 19:15:00
3:35 PM,77.5,55.6,47,30.03,10.0,West,4.6,-,N/A,,Scattered Clouds,260,2013-05-09 19:35:00
3:55 PM,78.1,56.7,48,30.03,10.0,SW,4.6,-,N/A,,Scattered Clouds,230,2013-05-09 19:55:00
4:15 PM,78.8,55.4,44,30.02,10.0,WSW,3.5,-,N/A,,Scattered Clouds,240,2013-05-09 20:15:00
4:35 PM,77.4,55.4,47,30.02,10.0,WSW,5.8,-,N/A,,Scattered Clouds,250,2013-05-09 20:35:00
4:55 PM,75.2,60.4,60,30.02,10.0,Calm,Calm,-,N/A,,Scattered Clouds,0,2013-05-09 20:55:00
5:15 PM,76.1,57.7,53,30.01,10.0,Calm,Calm,-,N/A,,Clear,0,2013-05-09 21:15:00
5:35 PM,77.7,56.3,48,30.01,10.0,Calm,Calm,-,N/A,,Scattered Clouds,0,2013-05-09 21:35:00
5:55 PM,74.3,63.0,68,30.01,10.0,Calm,Calm,-,N/A,,Clear,0,2013-05-09 21:55:00
6:15 PM,77.2,58.1,52,30.01,10.0,SW,3.5,-,N/A,,Mostly Cloudy,220,2013-05-09 22:15:00
6:35 PM,78.8,55.9,45,30.01,10.0,Calm,Calm,-,N/A,,Mostly Cloudy,0,2013-05-09 22:35:00
6:55 PM,78.3,55.4,45,30.00,10.0,SW,5.8,-,N/A,,Clear,220,2013-05-09 22:55:00
7:15 PM,77.9,55.6,46,30.01,10.0,SW,3.5,-,N/A,,Clear,220,2013-05-09 23:15:00
7:35 PM,76.3,57.0,51,30.01,10.0,Calm,Calm,-,N/A,,Clear,0,2013-05-09 23:35:00
7:55 PM,70.2,61.9,75,30.02,10.0,Calm,Calm,-,N/A,,Clear,0,2013-05-09 23:55:00
8:15 PM,64.6,61.0,88,30.02,10.0,Calm,Calm,-,N/A,,Clear,0,2013-05-10 00:15:00
8:35 PM,63.5,61.0,91,30.03,10.0,Calm,Calm,-,N/A,,Clear,0,2013-05-10 00:35:00
8:55 PM,61.3,59.9,95,30.04,10.0,Calm,Calm,-,N/A,,Clear,0,2013-05-10 00:55:00
9:15 PM,60.6,59.7,97,30.05,10.0,Calm,Calm,-,N/A,,Scattered Clouds,0,2013-05-10 01:15:00
9:35 PM,61.0,59.9,96,30.05,10.0,Calm,Calm,-,N/A,,Scattered Clouds,0,2013-05-10 01:35:00
9:55 PM,59.5,58.5,96,30.05,10.0,Calm,Calm,-,N/A,,Scattered Clouds,0,2013-05-10 01:55:00
10:15 PM,59.9,59.2,97,30.06,10.0,Calm,Calm,-,N/A,,Scattered Clouds,0,2013-05-10 02:15:00
10:35 PM,60.8,59.5,96,30.06,10.0,Calm,Calm,-,N/A,,Scattered Clouds,0,2013-05-10 02:35:00
10:55 PM,60.4,59.0,95,30.06,10.0,Calm,Calm,-,N/A,,Scattered Clouds,0,2013-05-10 02:55:00
11:15 PM,61.5,58.3,89,30.06,10.0,Calm,Calm,-,N/A,,Scattered Clouds,0,2013-05-10 03:15:00
11:35 PM,61.0,58.1,90,30.06,10.0,Calm,Calm,-,N/A,,Clear,0,2013-05-10 03:35:00
11:55 PM,60.3,58.1,93,30.06,10.0,Calm,Calm,-,N/A,,Clear,0,2013-05-10 03:55:00